Wind_Speed
19 21 24 26 27 26 28 27 26 24 20 27 28 23 22 26 22 23 20 19 20 22 22 22 21 30 25 27 27 22 22 18 4 5 3 5 8 8 8 10 8 5 11
21 24 25 27 28 28 28 27 28 25 22 22 22 21 23 25 22 19 19 19 22 23 24 24 25 26 24 29 26 24 24 23 12 6 6 6 9 9 10 10 11 9 15
24 27 30 31 31 30 30 28 25 23 23 24 24 25 25 25 21 14 17 17 18 21 27 28 26 27 30 27 28 24 24 25 22 9 4 6 9 10 12 11 11 9 15
25 28 32 32 31 30 28 25 25 24 21 25 27 27 27 23 15 10 11 15 19 21 25 30 29 24 31 29 26 25 24 23 20 14 8 4 8 11 14 14 13 15 17
25 29 32 33 30 29 28 24 26 27 28 27 28 28 27 20 14 1 4 12 18 22 26 29 30 30 30 30 27 27 25 23 22 16 8 4 6 17 17 15 14 15 16
25 29 32 33 32 31 28 23 30 28 28 30 28 28 26 19 13 5 4 9 15 25 29 30 30 29 30 30 27 26 25 25 22 15 12 8 12 16 19 17 19 21 8
25 29 32 33 32 32 29 28 27 29 30 30 29 29 24 28 19 10 8 11 17 26 31 32 31 30 31 31 28 27 24 22 23 20 19 11 16 20 21 21 21 13 18
28 29 33 35 33 33 32 31 29 28 29 29 29 31 27 32 22 19 19 21 25 26 35 36 31 34 31 31 31 27 27 24 22 20 19 13 18 22 23 22 22 34 30
28 32 34 34 32 36 37 31 29 28 29 27 29 31 32 36 25 25 27 28 30 33 35 36 36 34 34 31 28 31 29 25 22 20 17 15 16 22 19 29 30 35 19
27 30 33 38 37 38 34 31 28 29 28 28 30 34 37 35 28 27 28 28 30 31 33 35 34 36 33 30 31 31 28 26 23 19 15 8 22 26 24 31 39 26 28
25 29 34 37 39 37 33 31 30 29 30 32 31 35 37 39 35 30 29 26 30 30 29 29 31 31 29 29 31 30 29 27 21 17 11 19 29 27 30 33 38 44 29
23 28 32 34 37 37 34 34 32 31 30 32 31 32 35 35 37 36 32 30 27 31 29 30 32 30 29 29 28 27 25 25 22 16 23 32 33 37 34 32 31 38 40
22 27 31 32 36 33 34 33 33 31 30 30 29 28 30 31 33 38 37 35 34 33 31 36 33 28 26 26 26 27 26 24 22 29 30 36 41 40 39 41 42 45 44
21 26 30 32 34 36 35 34 36 35 31 29 30 27 28 31 30 27 29 36 40 42 41 34 27 24 22 21 21 24 27 31 35 33 36 37 40 44 44 47 49 44 39
20 25 29 33 35 36 36 35 35 39 39 33 27 30 26 30 31 32 34 35 36 36 39 39 36 34 34 33 32 34 36 36 36 34 37 36 41 43 40 43 43 38 37
20 23 28 32 34 36 37 38 38 43 44 46 49 36 37 39 38 39 40 40 39 41 39 35 32 30 29 29 29 29 34 35 36 36 34 37 38 41 41 38 39 42 39
17 20 25 29 32 35 38 37 31 41 43 50 50 54 48 41 41 44 45 46 43 45 37 32 30 30 27 29 30 31 31 35 37 38 40 39 41 42 43 38 38 40 36
14 18 21 25 28 30 33 36 35 33 32 37 45 50 51 51 45 39 38 44 43 42 36 33 32 31 30 32 32 34 38 38 39 38 40 42 40 40 36 36 34 35 35
12 15 18 21 24 28 32 37 39 38 36 33 40 46 39 48 55 53 51 42 35 34 34 37 35 35 37 38 39 40 40 40 40 41 40 40 38 40 37 36 34 34 33
9 12 15 18 21 26 29 33 35 37 36 38 42 40 37 54 48 42 43 43 42 37 35 37 37 39 39 39 40 40 41 39 38 37 36 35 34 37 39 36 32 30 27
7 9 12 14 18 21 24 26 28 32 35 36 38 41 47 49 44 45 44 43 41 39 39 39 38 38 38 38 38 39 39 38 35 34 33 33 34 36 33 32 31 30 30
4 6 8 11 13 16 18 20 22 25 28 30 32 35 41 46 47 47 48 49 48 46 44 43 42 40 39 39 40 40 40 40 39 39 38 37 36 35 34 35 33 32 30
1 3 5 7 9 11 13 15 17 19 22 23 25 28 32 35 37 39 40 41 43 45 45 46 45 43 41 41 41 41 41 39 38 38 38 38 38 37 36 37 35 33 31
2 0 2 3 5 7 9 11 12 14 15 17 19 21 23 26 28 30 31 33 35 36 38 39 40 40 40 41 40 39 38 37 36 36 36 37 36 35 34 32 30 29 27
5 4 3 1 1 2 3 5 7 8 10 11 13 15 16 18 21 23 24 26 27 29 30 30 31 32 32 33 34 33 31 29 29 28 29 29 29 28 27 27 25 23 20
8 7 6 5 4 4 3 2 2 3 4 6 7 9 11 12 13 14 17 19 21 23 25 26 26 26 25 26 26 25 25 24 24 21 21 23 24 23 21 21 19 19 17
Wind_Direction
328 330 327 327 326 323 326 330 328 330 315 298 315 308 306 304 293 272 259 241 227 218 213 209 202 200 195 183 189 196 198 193 134 136 196 183 160 145 151 162 164 161 172
335 335 332 330 331 330 332 337 337 329 311 310 325 329 318 304 303 277 260 238 226 211 200 198 193 193 188 184 180 185 196 198 188 131 110 132 159 152 154 149 156 145 162
338 339 335 337 339 338 339 343 342 326 318 335 333 328 325 322 312 293 265 243 225 212 195 192 190 193 183 165 174 175 186 189 195 170 107 114 146 153 138 140 147 141 167
347 348 348 344 343 342 345 347 337 347 342 338 341 336 335 332 318 276 250 236 217 207 194 189 184 176 169 171 168 172 177 173 179 178 184 128 131 150 146 142 136 155 165
359 0 354 354 354 352 352 346 341 352 352 344 342 342 344 341 337 32 190 198 201 190 184 178 177 179 174 173 166 173 168 166 169 166 155 173 134 157 157 163 134 150 136
5 4 360 1 358 355 351 342 357 350 349 351 347 346 349 356 38 50 157 167 175 174 164 166 170 169 172 172 170 171 169 163 160 166 174 165 147 153 157 153 143 128 143
11 7 2 0 356 355 355 355 357 352 354 351 352 358 4 19 38 59 120 144 151 160 154 155 157 165 162 163 163 165 168 172 177 173 173 158 149 156 154 150 156 143 105
15 11 9 7 355 355 358 360 3 356 354 355 0 8 18 28 54 75 102 119 107 129 143 148 150 151 156 155 155 155 160 167 173 173 162 124 152 166 156 156 130 114 112
18 16 14 10 358 1 0 359 2 359 360 3 12 18 26 32 56 75 93 102 98 106 126 139 142 144 150 149 149 151 154 163 169 168 160 131 142 160 156 143 121 112 110
16 13 14 15 12 6 360 4 5 7 9 15 22 28 34 37 57 77 94 102 104 110 120 132 143 146 149 152 154 152 152 161 163 172 180 123 138 153 157 148 139 126 123
10 11 17 18 18 10 4 12 12 12 18 23 26 31 37 44 55 78 92 101 118 118 125 132 142 148 149 154 154 156 156 156 155 149 138 120 140 146 139 140 151 145 135
5 16 18 18 20 16 12 18 21 18 23 27 30 35 40 46 57 76 93 96 107 121 126 132 140 146 148 149 151 149 146 146 141 127 130 131 132 129 135 135 140 141 139
17 19 19 21 25 21 20 20 26 24 27 31 32 34 34 41 56 68 86 98 99 101 123 137 137 136 142 142 142 140 142 137 137 137 125 133 131 136 133 131 133 137 136
22 24 22 26 30 30 32 28 35 32 30 34 35 34 37 43 53 65 79 85 92 97 109 121 131 133 138 138 133 134 140 145 143 129 126 125 122 130 128 137 134 134 129
29 27 27 33 35 40 43 35 43 49 45 43 42 45 44 46 58 82 87 88 92 95 99 98 94 96 100 105 112 118 126 127 122 122 123 122 125 129 125 134 136 139 124
32 31 32 36 38 42 40 42 47 52 52 50 57 57 61 69 81 89 89 92 95 99 86 83 82 87 92 98 100 106 114 118 120 123 119 121 124 127 130 134 137 133 128
38 36 37 37 40 42 44 40 25 44 52 49 50 57 64 75 78 76 89 90 87 101 79 77 79 84 87 93 98 102 102 113 125 122 124 125 126 128 133 133 131 134 126
44 44 44 42 43 47 51 49 43 38 31 36 48 54 58 69 76 80 88 97 78 78 77 78 80 85 89 93 96 101 109 116 118 116 118 125 128 133 126 125 128 129 127
48 49 50 50 49 51 54 57 55 49 43 38 50 54 49 62 76 77 83 76 73 71 75 81 86 90 95 102 107 114 119 118 121 122 124 128 129 135 126 129 127 126 127
57 53 51 53 55 54 53 55 56 55 50 49 51 48 48 65 58 59 67 72 77 77 81 86 91 98 102 107 112 115 117 119 121 123 124 127 127 128 127 125 122 119 117
65 63 57 57 57 58 60 60 59 61 62 62 63 68 72 70 65 66 68 73 78 83 89 97 101 104 107 111 114 117 117 117 120 121 121 120 121 119 121 122 122 121 121
80 69 63 61 62 63 64 65 67 67 67 68 69 71 77 79 78 77 79 80 83 87 92 95 98 100 104 108 111 114 116 117 120 121 121 121 121 121 120 118 115 114 113
92 71 69 66 67 68 70 71 71 72 74 74 75 75 75 78 80 81 82 84 86 88 89 90 92 94 97 99 103 105 105 107 112 114 114 115 115 115 114 112 111 111 111
248 191 67 61 63 63 64 69 71 75 79 82 81 81 83 86 87 87 88 89 91 91 92 93 94 96 96 95 95 95 98 103 107 108 109 110 112 111 111 111 111 113 115
257 255 271 311 18 31 48 54 64 72 81 86 92 94 93 94 98 100 101 101 99 98 96 95 97 98 98 100 102 103 104 106 107 111 113 113 113 115 117 118 119 118 116
248 251 255 263 278 287 299 312 349 54 76 91 102 108 112 113 111 110 110 111 112 112 113 111 110 108 108 107 107 109 111 111 111 112 114 116 119 121 123 123 125 126 129
Height
799 796 789 783 776 769 762 755 748 743 736 728 725 720 717 712 708 705 707 708 711 716 720 727 733 740 746 752 759 765 770 774 778 782 784 785 787 790 792 794 796 796 799
799 794 786 778 771 764 757 751 744 738 729 723 719 713 708 704 701 699 699 700 704 708 715 721 728 736 741 748 755 762 768 773 778 781 784 785 788 791 793 795 797 800 803
797 791 782 774 767 760 754 748 742 733 725 722 716 709 703 698 695 693 694 695 698 703 709 716 724 730 738 743 752 759 766 772 778 781 784 786 789 792 794 797 800 800 806
797 789 780 772 766 759 752 745 738 729 724 719 712 705 699 693 690 687 687 689 692 697 704 712 720 726 733 742 750 757 764 770 777 782 786 787 789 793 797 801 805 808 809
797 789 780 773 765 757 750 743 734 729 723 716 709 702 696 690 685 683 682 683 686 693 701 709 718 726 734 742 749 756 762 769 777 782 786 788 790 794 797 800 802 805 809
798 790 782 774 765 756 750 742 734 729 722 714 707 700 693 687 682 679 678 679 682 689 698 708 718 726 735 743 751 758 764 770 776 782 787 789 792 796 800 803 805 806 819
801 793 783 777 767 759 751 742 737 729 722 713 707 700 693 686 681 677 676 677 681 687 697 708 718 727 736 744 753 760 768 773 779 783 786 790 793 797 801 805 811 811 811
803 796 788 780 770 761 753 746 739 730 722 717 709 702 695 689 683 680 680 681 685 690 699 710 719 728 738 746 753 761 769 775 781 785 788 792 796 800 803 808 809 809 818
807 801 793 783 774 765 755 749 741 734 726 719 714 707 700 694 690 688 688 690 694 698 707 716 724 733 742 749 755 762 769 776 783 787 791 793 798 802 805 807 810 812 825
814 807 798 789 779 771 763 755 747 738 731 725 719 713 708 703 699 697 698 699 702 708 717 724 733 739 746 752 757 762 769 777 784 789 793 796 800 806 809 812 811 822 829
820 812 802 795 787 779 768 760 751 743 737 732 725 720 716 713 710 707 707 708 711 716 724 731 739 746 752 758 764 768 773 779 787 791 794 798 805 808 812 819 821 826 834
824 816 808 801 793 784 773 766 759 750 744 740 734 729 726 724 722 719 717 717 719 721 730 738 746 752 758 764 770 775 780 784 790 794 797 802 807 812 816 822 827 831 835
828 821 815 807 798 789 780 773 766 758 752 749 745 740 737 735 732 732 730 729 729 731 737 745 753 759 764 770 775 780 786 790 793 797 800 807 810 816 823 827 832 836 845
833 828 822 813 804 794 790 782 777 770 763 759 755 751 748 746 745 742 743 743 744 745 750 756 761 766 770 775 781 786 791 795 798 802 806 812 817 821 827 833 837 845 852
839 835 829 821 813 805 798 793 790 786 778 771 768 764 759 757 757 752 751 752 754 757 759 763 768 773 777 783 788 793 798 802 805 809 813 817 820 826 832 837 843 851 858
844 841 836 830 823 816 809 802 800 797 791 783 777 773 771 767 766 762 762 762 764 765 767 773 779 783 787 792 795 799 804 807 812 816 820 823 829 833 840 848 852 856 864
850 848 843 839 833 827 820 814 808 803 800 794 787 782 779 776 775 774 771 770 772 772 779 785 790 794 797 801 804 807 810 813 818 820 825 831 835 840 844 852 859 864 872
856 854 851 848 843 839 834 827 822 816 811 806 803 796 792 788 785 785 784 781 785 790 794 797 801 804 807 808 811 814 818 823 826 830 833 837 842 847 853 859 867 872 878
860 859 857 855 852 848 844 839 834 829 825 820 816 810 808 802 797 795 792 796 801 803 806 807 810 813 814 816 819 822 826 830 835 838 843 848 854 857 863 870 875 881 884
865 863 862 861 859 856 852 848 846 843 838 834 828 825 823 810 810 813 813 813 813 816 817 817 819 821 824 826 829 832 835 841 845 849 854 859 863 867 871 877 884 887 892
869 868 867 866 864 863 862 859 857 854 852 849 847 843 837 833 833 831 829 828 828 828 828 829 832 834 836 838 840 843 847 852 856 860 864 868 872 875 881 886 890 894 898
872 872 871 871 870 869 869 868 867 865 863 861 860 858 853 849 848 848 848 847 846 844 844 843 843 845 846 849 852 855 858 862 865 868 872 877 881 885 889 892 896 900 904
874 874 874 874 874 874 874 874 873 872 872 871 870 868 865 863 862 862 862 862 862 861 861 860 859 860 861 862 864 865 867 872 876 879 881 886 889 893 897 899 904 907 911
874 875 876 877 877 877 877 878 878 878 878 877 877 877 876 875 874 873 873 873 873 874 874 874 875 875 876 877 878 880 882 886 889 890 892 894 898 901 903 907 911 915 919
875 876 877 878 879 880 880 880 881 882 883 883 883 883 883 883 883 883 883 883 883 883 883 884 885 886 887 888 890 892 895 898 899 901 902 904 906 909 912 915 918 921 923
875 876 877 878 879 880 881 882 883 883 884 886 887 887 888 888 888 888 889 889 890 891 892 893 894 895 897 898 899 901 903 904 906 909 910 912 913 916 919 920 923 924 926